RADUGA-1 5 [-]

Last updated on July 6, 2021, 3:35 p.m. UTC

1 26477U 00049A   21186.66723053 -.00000349  00000-0  00000-0 0  9996
2 26477  12.9213  21.0414 0007233  41.8366 206.9376  1.00270833 76292
UTC
Height (km)
Latitude
Longitude
Inclination
Orbital Period
UTC large
Height (km)
Speed (km/s)
/
Latitude / Longitude
Inclination (degrees)
Orbital Period (minutes)
Azimuth
Elevation
Range (km)
Doppler Factor
iOS Compass Heading
iOS Angle